Location: Geremba
(10.4250°N, 67.2394°W)
Time: 14:43:14
(UTC+00:00)

Cosmos 2218 Rocket - Pass Details

Date: 15 August 2024
Orbit: 956 x 1005 km, 82.9° (Epoch: 06 September)

Event Time Altitude Azimuth Distance (km) Brightness Sun altitude
Rises 09:31:17 0° 19° (NNE) 3,718 7.6 -12.3°
Reaches altitude 10° 09:34:23 10° 33° (NNE) 2,765 7.1 -11.5°
Maximum altitude 09:39:18 24° 84° (E) 1,946 6.7 -10.4°
Drops below altitude 10° 09:44:11 10° 135° (SE) 2,746 6.8 -9.2°
Sets 09:47:12 0° 149° (SSE) 3,686 7.2 -8.5°
